User: anonymous   Login
Location: Unspecified
(0.0000°N, 0.0000°E)
Time: 10:28:02
(UTC+00:00)
Language:

NO-84 - Orbit

View from above orbital plane
View from above orbital plane
View from above satellite
View from above satellite

Ground track
Ground track

The orbit data is extracted from the following two-line orbital elements,

1 40654U 15025D   18193.47550317  .00008372  00000-0  13518-3 0 03519
2 40654 054.9922 282.0300 0157250 172.5885 187.7470 15.41159533059749
Epoch (UTC): 12 July 2018 11:24:43
Eccentricity: 0.0157250
inclination: 54.9922°
perigee height: 335 km
apogee height: 550 km
right ascension of ascending node: 282.0300°
argument of perigee: 172.5885°
revolutions per day: 15.41159533
mean anomaly at epoch: 187.7470°
orbit number at epoch: 5974

The dashed part of the orbit path shows where the satellite is in the earth's shadow,  

DLR